User: anonymous   Login
Location: Unspecified
(0.0000°N, 0.0000°E)
Time: 02:15:59
(UTC+00:00)
Language:

Eutelsat I F4 - Orbit

View from above orbital plane
View from above orbital plane
View from above satellite
View from above satellite

Ground track
Ground track

The orbit data is extracted from the following two-line orbital elements,

1 18351U 87078B   18018.54856215 -.00000163 +00000-0 +00000-0 0  9993
2 18351 015.4724 007.4588 0015688 309.5261 185.1914 00.98690167096447
Epoch (UTC): 18 January 2018 13:09:55
Eccentricity: 0.0015688
inclination: 15.4724°
perigee height: 36168 km
apogee height: 36302 km
right ascension of ascending node: 7.4588°
argument of perigee: 309.5261°
revolutions per day: 0.98690167
mean anomaly at epoch: 185.1914°
orbit number at epoch: 9644

The dashed part of the orbit path shows where the satellite is in the earth's shadow,  

DLR